Weather Roundup
Issued by NWS

Home | Current Version | Previous Version | Graphics & Text | Print | Product List | Glossary Off
Versions: 1 2 3 4 5 6 7 8 9 10 11 12 13 14 15 16 17 18 19 20 21 22 23 24 25 26 27 28 29 30 31 32 33 34 35 36 37 38 39 40 41 42 43 44 45 46 47 48 49 50

000
NZUS93 KARX 281910
HRRWXR

CURRENT HOURLY OBSERVATIONS ACROSS
MUCH OF THE UPPER MISSISSIPPI VALLEY
NATIONAL WEATHER SERVICE LA CROSSE WI
200 PM CDT THU MAY 28 2015


...SOUTHEAST MINNESOTA...


CITY           SKY/WX    TMP DP  RH WIND       PRES   REMARKS
ROCHESTER      MOSUNNY   80  57  45 S18       30.09F
ROCHESTER/MAYO FAIR      78  51  38 S13G22    30.08F
WINONA         MOSUNNY   81  55  41 SW9       30.07F
AUSTIN         MOSUNNY   77  57  50 S17       30.08S
ALBERT LEA     MOSUNNY   81  52  36 S18G26    30.06S
DODGE CENTER   MOSUNNY   81  52  36 S20G29    30.07F
PRESTON        PTSUNNY   77  54  44 S14       30.11S
OWATONNA       MOSUNNY   81  52  36 S17G24    30.05F
FARIBAULT      MOSUNNY   81  55  41 S14G22    30.05F
$$

...ELSEWHERE IN MINNESOTA...


CITY           SKY/WX    TMP DP  RH WIND       PRES   REMARKS
MINNEAPOLIS    MOSUNNY   82  55  39 S14G21    30.01F
INTNL FALLS    CLOUDY    59  55  87 VRB5      29.96F
DULUTH         PTSUNNY   52  45  77 E15       30.05F
RED WING       MOSUNNY   84  52  32 SW13G18   30.04S
REDWOOD FALLS  PTSUNNY   83  49  30 S21G28    29.96F
MANKATO        MOSUNNY   82  54  36 S16G24    30.02F
WORTHINGTON    MOSUNNY   81  48  32 S20G25    30.00F
FAIRMONT       MOSUNNY   79  52  38 S22G29    30.02F
$$

...SOUTHWEST WISCONSIN...


CITY           SKY/WX    TMP DP  RH WIND       PRES   REMARKS
LA CROSSE      MOSUNNY   84  58  40 S16G23    30.08F
PRAIRIE DU CHI PTSUNNY   81  52  36 S9G17     30.11S
BOSCOBEL       MOSUNNY   83  56  39 S12G17    30.12S
LONE ROCK      MOSUNNY   80  56  43 S12G22    30.12F
PLATTEVILLE    MOSUNNY   80  53  39 S15G21    30.14F
FORT MC COY    MOSUNNY   83  51  33 S15       30.10S
CAMP DOUGLAS   PTSUNNY   82  59  44 SW9G20    30.10F
VIROQUA        FAIR      79  57  47 S12       30.13F
WIS DELLS      MOSUNNY   79  58  48 S13       30.13S
$$

...ELSEWHERE IN WISCONSIN...


CITY           SKY/WX    TMP DP  RH WIND       PRES   REMARKS
MILWAUKEE      PTSUNNY   77  58  51 SE15      30.17S
MADISON        PTSUNNY   80  57  45 S15       30.13F
GREEN BAY      SUNNY     82  64  54 S12       30.12F
EAU CLAIRE     MOSUNNY   83  51  33 S15G21    30.05F
BLACK RVR FLS  FAIR      84  50  30 S13       30.08F
MEDFORD        MOSUNNY   79  60  52 S9        30.09F
WAUSAU         MOSUNNY   81  57  43 S12       30.08F
WIS RAPIDS     MOSUNNY   84  53  34 SW15      30.11F
MARSHFIELD     MOSUNNY   83  54  36 SW16      30.09F
RICE LAKE      SUNNY     83  47  28 SW16      30.06S
$$

...NORTHEAST IOWA...


CITY           SKY/WX    TMP DP  RH WIND       PRES   REMARKS
DECORAH        PTSUNNY   79  55  44 S9G22     30.10F
MASON CITY     PTSUNNY   80  55  42 S20       30.07F
CHARLES CITY   PTSUNNY   79  54  41 S15G23    30.09F
OELWEIN          N/A     79  55  44 SE15G26   30.12
$$

...ELSEWHERE IN IOWA...


CITY           SKY/WX    TMP DP  RH WIND       PRES   REMARKS
DES MOINES     CLOUDY    77  60  55 S18G25    30.07S
IOWA CITY      MOSUNNY   79  58  48 SE13      30.12F
FORT DODGE     CLOUDY    79  57  47 S10G22    30.05F
$$

...NORTHERN ILLINOIS...


CITY           SKY/WX    TMP DP  RH WIND       PRES   REMARKS
CHICAGO-OHARE  MOSUNNY   82  56  40 E13G20    30.16F
CHICAGO-MIDWAY PTSUNNY   83  58  42 E15G21    30.16F
MOLINE         MOSUNNY   83  54  36 SE12G21   30.12F
ROCKFORD       PTSUNNY   82  55  39 S14G24    30.17S
PEORIA         PTSUNNY   84  52  33 SE16G22   30.15S
$$

NOTE: "FAIR" INDICATES FEW OR NO CLOUDS BELOW 12,000 FEET WITH NO
SIGNIFICANT WEATHER AND/OR OBSTRUCTIONS TO VISIBILITY. WIND
SPEEDS ARE IN MILES-PER-HOUR.



USA.gov is the U.S. government's official web portal to all federal, state and local government web resources and services.